Wind_Speed
7 7 7 7 7 8 9 10 11 12 13 14 14 15 16 17 19 22 23 25 26 29 30 29 24 15 18 11 27 37 37 40 37 41 39 35 32 28 19 14 13 13 14 17 18 21 22
6 6 6 7 7 8 9 10 11 11 12 13 13 14 16 18 21 24 25 26 28 32 30 26 16 14 21 16 35 38 41 36 41 34 33 31 28 23 17 15 14 15 19 22 23 17 26
5 6 6 6 7 7 9 10 10 10 11 13 14 15 17 20 23 26 27 29 31 34 31 20 13 23 12 32 39 36 31 40 40 38 32 28 24 18 16 16 16 19 22 20 20 23 27
4 5 6 6 6 7 8 9 9 10 11 12 14 16 18 22 25 28 29 32 35 35 28 12 20 27 15 39 38 38 31 28 29 29 25 22 20 16 15 17 20 17 13 31 30 26 26
3 4 5 5 5 6 7 9 8 9 10 12 15 16 20 23 26 29 31 34 36 33 23 10 23 25 28 36 32 24 36 37 33 31 25 17 14 13 14 19 16 18 27 30 32 36 35
3 4 4 4 5 6 7 8 7 9 10 12 15 17 21 23 27 30 32 35 35 28 20 8 20 21 37 35 39 36 32 33 31 24 19 12 10 11 13 20 15 26 32 31 41 42 33
3 4 4 3 4 5 7 7 7 8 10 13 16 18 22 23 27 29 32 35 33 20 16 6 25 36 38 35 33 36 37 31 25 21 10 7 7 14 17 16 16 21 29 38 41 30 44
4 4 3 3 3 5 6 6 6 8 11 14 17 19 22 24 27 29 32 34 30 21 12 4 26 36 39 41 31 35 39 34 31 25 14 8 9 14 16 15 18 23 32 38 40 45 39
4 4 3 2 2 4 5 5 6 8 11 15 18 20 23 25 27 29 32 33 28 23 2 10 28 33 39 40 32 35 39 36 30 22 16 8 9 13 17 19 23 25 24 37 43 45 26
4 3 3 2 2 3 4 4 6 9 12 15 18 21 24 27 27 32 33 33 23 19 1 23 30 30 34 34 29 34 31 27 21 24 15 8 8 16 19 21 27 34 27 42 36 27 12
4 4 3 3 1 2 3 4 6 10 12 15 18 20 24 28 29 31 32 30 18 12 4 30 30 33 31 33 32 30 31 24 15 19 19 13 5 15 20 27 30 24 34 36 19 18 19
5 4 4 3 3 2 3 4 6 9 12 15 18 20 24 27 27 30 32 26 15 9 5 18 29 33 28 31 28 30 30 24 12 16 18 12 5 16 13 30 17 26 38 13 7 10 3
6 5 6 5 4 4 3 5 7 9 12 15 17 19 23 25 26 31 31 24 7 10 20 18 30 31 29 33 26 31 30 29 32 25 33 18 3 11 13 37 10 24 40 9 9 5 5
7 6 6 6 5 4 4 5 8 10 13 15 17 18 23 23 27 30 30 21 10 18 17 23 27 22 23 32 23 27 25 24 25 30 18 20 7 17 15 30 20 19 28 5 5 7 17
9 8 7 7 6 5 5 5 7 10 13 15 16 16 21 21 26 28 27 19 11 17 20 23 24 18 20 26 23 22 22 16 19 27 24 15 10 15 13 25 14 14 21 10 11 20 6
11 9 8 8 8 6 5 6 8 10 12 15 17 16 21 21 25 27 26 21 17 19 20 22 19 18 21 28 24 19 20 13 17 21 29 13 16 9 22 16 14 12 20 11 10 6 8
12 10 9 9 8 7 6 6 7 11 13 15 17 16 21 20 24 26 26 23 19 20 21 20 20 19 20 27 25 17 17 16 20 26 26 18 9 16 29 14 14 11 15 15 11 10 4
13 11 10 10 9 7 6 7 9 11 13 15 17 15 20 19 21 27 25 24 22 21 19 20 18 22 21 25 18 13 15 20 20 28 18 14 13 17 25 9 5 15 19 18 11 8 17
13 12 12 12 10 9 7 8 10 13 14 16 17 15 20 18 22 26 24 24 22 21 20 20 17 21 22 22 13 17 19 23 22 18 16 18 10 16 12 4 11 22 29 18 26 20 16
15 14 13 13 12 10 9 9 11 12 14 16 17 15 20 17 23 24 24 23 23 21 18 21 17 20 22 19 20 13 23 21 18 11 12 18 16 14 13 26 32 35 23 18 29 12 24
17 15 14 14 13 12 10 10 11 12 14 16 16 15 17 19 22 22 22 23 22 20 20 20 19 22 23 19 22 16 26 20 13 13 14 20 16 20 33 30 8 24 20 16 33 34 15
19 17 15 15 15 14 12 12 12 13 13 15 16 17 19 20 21 21 22 22 22 19 19 19 19 20 21 22 22 27 24 17 9 15 17 21 19 31 31 5 25 18 11 17 36 42 30
21 19 17 17 16 14 13 13 14 12 12 17 18 17 17 18 21 21 21 21 21 19 17 18 18 18 18 20 22 20 16 14 15 17 20 19 27 33 9 22 19 4 10 21 49 39 26
24 21 18 18 17 16 15 15 17 11 15 17 19 16 17 18 20 18 21 20 21 19 19 18 19 19 21 21 21 18 14 13 14 13 16 18 27 15 16 20 3 5 15 39 52 29 26
25 23 19 19 18 16 17 12 16 17 18 20 19 15 15 18 20 19 21 21 19 19 18 18 20 20 21 21 19 9 8 9 10 11 14 15 22 14 9 17 16 8 23 48 44 33 19
26 24 21 19 17 15 14 11 15 17 22 20 18 16 16 17 18 20 18 21 17 20 18 18 19 18 21 21 16 8 5 11 6 8 14 20 16 8 10 6 4 10 31 45 28 18 41
28 26 22 19 18 17 15 16 15 13 15 15 16 17 18 17 18 19 20 19 17 20 17 16 19 16 18 19 12 8 4 13 8 12 17 20 16 12 12 8 10 13 43 41 17 31 47
30 27 25 20 19 22 15 16 15 17 13 14 17 19 19 19 20 20 22 18 18 19 17 16 17 16 14 15 10 10 7 9 10 23 15 12 12 9 10 6 8 31 42 35 38 39 39
31 30 27 23 21 21 19 17 18 17 16 14 17 19 20 20 21 23 17 17 18 20 16 14 15 16 12 11 12 8 12 10 19 11 14 9 19 16 11 18 24 34 36 35 36 35 35
Wind_Direction
60 47 35 27 21 20 19 16 14 14 19 19 20 22 21 24 21 15 10 8 2 355 354 355 353 13 5 354 342 331 330 329 332 330 324 323 324 326 323 313 301 288 278 277 284 292 303
54 35 24 17 16 16 17 15 15 22 21 22 25 27 24 21 17 13 8 4 358 355 358 3 19 20 351 345 337 334 335 337 331 331 329 327 326 329 322 320 310 295 290 295 295 308 310
39 22 15 12 13 13 16 16 16 24 26 27 27 27 25 21 16 12 8 1 357 356 1 11 28 6 4 345 339 341 342 336 336 337 338 334 327 329 325 315 306 312 312 305 318 328 318
31 16 6 6 10 14 16 17 21 24 27 28 26 26 23 20 14 10 7 2 356 353 0 8 12 4 356 347 343 338 336 342 334 335 340 329 325 327 330 322 321 322 322 332 331 339 329
20 9 1 358 5 14 17 20 28 27 27 26 26 24 21 17 13 9 6 1 354 354 360 0 9 4 352 348 341 344 343 348 353 344 342 333 327 338 336 327 330 335 328 328 330 331 323
6 356 351 353 4 12 18 23 31 29 28 26 25 22 17 14 11 9 5 359 354 354 359 17 6 3 345 350 346 349 354 353 352 348 340 342 353 348 333 346 345 323 322 320 319 324 322
336 337 340 348 5 11 19 28 31 27 27 23 21 22 16 12 10 10 5 358 352 351 348 358 357 349 348 354 347 351 355 3 359 356 6 356 13 355 351 350 335 323 315 319 322 329 322
310 321 329 349 8 15 23 29 26 22 21 19 18 17 15 11 11 9 5 359 354 345 331 297 347 351 351 351 352 352 358 360 4 9 5 2 359 353 346 336 328 326 327 330 328 326 323
307 310 316 338 9 16 24 27 16 14 17 16 13 13 11 11 12 8 3 358 354 347 61 356 351 353 354 354 349 357 356 359 355 4 354 10 352 356 342 338 334 330 328 325 320 328 332
299 303 307 312 7 19 21 18 6 7 12 12 11 8 7 10 10 8 4 360 357 350 170 355 351 353 352 355 351 353 359 359 347 353 354 347 341 347 349 347 342 327 332 329 326 323 316
278 295 284 281 305 360 359 3 359 1 4 6 8 8 6 10 11 7 4 1 2 9 31 341 345 346 346 351 351 349 356 2 347 353 356 342 339 348 357 348 334 322 336 333 321 319 314
267 279 268 264 278 295 331 345 350 354 356 1 6 5 6 12 9 7 6 6 12 14 360 336 336 337 348 354 354 357 357 1 17 0 1 341 353 5 348 344 339 337 342 349 332 331 327
260 263 256 254 259 277 310 332 338 345 348 356 4 5 6 9 8 7 7 11 23 41 338 337 337 341 348 353 355 357 359 4 18 7 357 13 318 340 330 349 359 353 7 351 1 352 243
253 255 252 254 258 268 293 317 326 337 343 355 2 4 6 6 8 8 10 15 43 348 349 344 340 342 349 354 351 359 358 3 14 12 356 348 346 334 341 352 343 1 16 51 301 317 299
246 251 248 257 256 266 285 304 318 330 341 352 0 3 4 6 7 9 12 23 17 359 347 347 347 347 351 350 352 358 0 357 359 5 7 336 298 343 340 344 350 343 1 338 274 291 282
244 239 243 249 255 259 270 294 314 328 341 349 357 358 2 3 7 8 11 27 13 4 356 354 357 348 344 347 353 359 5 346 348 346 344 321 297 326 340 336 331 334 357 345 325 314 314
244 240 240 241 245 257 276 292 311 325 336 347 350 356 359 1 5 9 16 18 8 3 2 357 351 349 349 345 348 353 355 348 344 335 341 335 293 306 333 327 321 323 1 355 317 264 279
236 240 242 243 240 247 269 287 304 316 329 343 348 355 356 1 7 6 12 9 5 3 360 356 353 355 352 348 343 349 346 345 337 334 341 332 304 292 325 321 300 327 321 340 340 307 290
234 236 240 239 238 242 262 282 298 310 324 341 347 354 357 360 5 5 6 5 1 358 356 356 356 356 352 347 339 332 337 339 334 333 338 339 319 318 342 333 332 322 318 308 338 328 278
229 234 238 237 232 244 260 278 290 305 321 335 347 354 354 354 359 359 3 2 360 356 352 353 352 351 348 348 341 320 334 333 331 336 339 326 309 296 261 294 304 304 305 305 349 319 305
228 231 236 231 231 243 262 278 287 299 313 328 349 348 352 348 353 354 359 359 358 353 352 353 350 346 346 346 341 335 335 338 328 332 334 331 316 323 311 304 300 313 294 297 342 337 300
228 232 234 229 231 241 259 279 290 300 317 331 340 344 345 344 347 350 355 356 354 350 350 352 350 345 341 340 333 329 327 334 327 327 330 337 319 328 335 236 322 304 282 294 329 341 318
226 230 233 229 229 239 260 276 278 294 325 328 330 333 338 339 344 346 349 351 349 347 347 347 346 344 343 339 334 326 322 321 310 316 331 331 335 333 295 325 324 284 322 326 334 342 326
226 228 233 231 230 234 254 271 278 315 320 323 327 329 332 336 338 339 344 347 345 343 341 342 346 346 346 342 339 330 323 317 313 311 322 321 332 327 298 337 0 317 333 341 337 343 324
226 230 234 232 231 236 260 260 288 313 319 320 320 321 330 332 332 336 341 343 340 340 340 340 344 344 345 344 348 341 329 333 324 322 328 321 330 319 310 310 293 306 342 347 336 337 337
225 230 236 233 231 233 248 256 280 304 310 314 314 316 325 331 328 331 333 337 336 336 336 338 343 343 345 348 352 337 336 328 337 330 332 328 329 325 317 302 274 330 336 341 333 325 337
222 225 232 233 231 224 230 254 267 295 310 311 311 314 321 327 325 325 328 331 330 332 332 334 343 343 344 347 345 341 318 334 325 317 324 337 339 325 325 272 281 320 331 342 347 325 338
223 223 226 232 235 225 239 252 263 283 291 294 302 311 315 319 319 320 325 329 327 331 329 329 341 342 342 354 353 348 322 324 314 321 320 320 335 331 329 295 324 329 330 342 327 330 333
221 226 223 230 237 230 240 246 267 281 284 284 292 304 311 312 312 314 315 318 323 326 322 320 332 341 338 345 341 334 320 305 317 310 327 323 320 307 297 297 320 324 322 323 328 330 335
Height
3162 3162 3161 3160 3160 3159 3158 3157 3155 3153 3152 3150 3148 3146 3144 3142 3139 3136 3133 3129 3125 3121 3116 3112 3107 3103 3103 3100 3100 3093 3088 3080 3075 3069 3062 3056 3052 3049 3048 3047 3046 3044 3044 3042 3038 3035 3032
3163 3162 3161 3161 3160 3159 3158 3157 3155 3154 3152 3151 3149 3146 3144 3141 3138 3135 3131 3127 3123 3119 3113 3109 3106 3105 3102 3102 3097 3090 3081 3076 3070 3066 3059 3052 3047 3047 3045 3045 3045 3041 3040 3037 3035 3032 3029
3163 3163 3162 3161 3160 3159 3158 3157 3156 3154 3153 3151 3149 3146 3143 3140 3137 3133 3129 3125 3120 3115 3110 3107 3106 3103 3101 3100 3092 3088 3080 3070 3061 3056 3053 3048 3045 3045 3045 3043 3040 3037 3036 3033 3032 3031 3025
3163 3163 3162 3161 3160 3159 3158 3157 3156 3155 3153 3151 3149 3146 3143 3139 3136 3131 3127 3122 3117 3112 3108 3106 3104 3102 3100 3095 3087 3081 3080 3075 3064 3058 3053 3048 3045 3044 3043 3041 3037 3035 3032 3028 3029 3026 3021
3163 3163 3162 3161 3160 3160 3159 3158 3156 3155 3154 3151 3149 3146 3142 3138 3134 3130 3125 3120 3114 3109 3106 3104 3103 3102 3099 3095 3091 3082 3071 3063 3058 3051 3050 3047 3045 3044 3042 3038 3036 3033 3029 3026 3021 3019 3015
3163 3162 3162 3161 3160 3159 3159 3158 3157 3156 3154 3151 3149 3145 3141 3137 3133 3128 3122 3117 3111 3107 3105 3104 3103 3102 3098 3092 3082 3077 3071 3063 3056 3052 3047 3045 3044 3044 3042 3037 3037 3031 3025 3024 3019 3013 3007
3163 3162 3162 3161 3160 3159 3158 3158 3157 3156 3153 3151 3148 3145 3141 3136 3131 3126 3122 3117 3113 3109 3105 3103 3102 3099 3093 3090 3080 3074 3066 3061 3058 3053 3049 3047 3046 3043 3040 3039 3036 3032 3027 3020 3014 3008 2998
3162 3162 3161 3161 3160 3159 3158 3157 3156 3155 3153 3150 3147 3144 3140 3136 3130 3125 3121 3115 3110 3109 3103 3103 3102 3095 3089 3082 3076 3069 3063 3059 3052 3049 3047 3046 3044 3042 3040 3037 3034 3031 3023 3014 3002 3002 2995
3161 3161 3160 3160 3160 3159 3158 3156 3155 3154 3152 3149 3146 3143 3140 3135 3130 3126 3120 3114 3108 3103 3102 3103 3099 3094 3087 3080 3071 3067 3060 3053 3051 3050 3046 3044 3044 3043 3038 3034 3029 3027 3022 3012 3009 2989 2989
3160 3160 3160 3159 3159 3158 3157 3156 3155 3154 3152 3149 3146 3142 3138 3133 3131 3123 3118 3112 3105 3102 3101 3104 3097 3089 3088 3082 3074 3067 3064 3060 3053 3049 3047 3044 3043 3041 3039 3034 3028 3020 3018 3010 3000 2994 2987
3158 3159 3159 3159 3158 3157 3156 3155 3155 3153 3151 3148 3145 3142 3137 3130 3126 3123 3119 3111 3105 3102 3104 3104 3097 3094 3086 3082 3076 3072 3064 3060 3055 3050 3049 3044 3043 3041 3038 3034 3029 3021 3014 3003 2997 2993 2989
3157 3157 3158 3157 3157 3156 3156 3155 3154 3152 3150 3148 3145 3141 3136 3131 3127 3123 3116 3110 3106 3106 3105 3104 3099 3092 3089 3082 3074 3069 3063 3060 3055 3050 3047 3042 3042 3042 3039 3037 3029 3021 3011 2999 2994 2993 2991
3156 3156 3156 3156 3156 3155 3155 3154 3152 3151 3149 3147 3144 3140 3136 3131 3127 3121 3116 3110 3109 3110 3113 3106 3096 3089 3083 3078 3074 3067 3061 3056 3053 3048 3045 3043 3042 3040 3037 3031 3028 3022 3009 3002 3003 2999 2995
3154 3154 3155 3155 3155 3154 3153 3152 3152 3150 3148 3146 3143 3139 3135 3130 3126 3121 3116 3112 3109 3112 3108 3104 3097 3090 3084 3077 3072 3068 3065 3061 3059 3057 3052 3046 3040 3041 3037 3034 3030 3026 3024 3026 3027 3006 2987
3151 3152 3153 3154 3153 3153 3152 3151 3150 3149 3147 3145 3142 3138 3134 3130 3125 3120 3117 3112 3115 3110 3106 3100 3094 3087 3084 3081 3075 3069 3066 3065 3063 3060 3060 3051 3042 3040 3037 3034 3033 3029 3027 3026 3018 3002 2997
3149 3150 3151 3151 3152 3151 3150 3150 3149 3147 3146 3144 3141 3137 3133 3129 3124 3120 3117 3113 3111 3108 3104 3099 3094 3090 3085 3080 3076 3072 3068 3067 3065 3062 3060 3054 3044 3037 3036 3034 3033 3031 3029 3024 3021 3011 2998
3147 3148 3148 3149 3149 3150 3149 3148 3147 3146 3144 3142 3139 3136 3133 3128 3124 3120 3115 3113 3110 3107 3104 3100 3094 3090 3086 3080 3075 3072 3070 3068 3064 3061 3059 3054 3050 3041 3037 3033 3030 3030 3027 3025 3022 3014 3005
3144 3145 3146 3147 3147 3148 3147 3146 3145 3144 3143 3141 3138 3135 3131 3127 3125 3118 3115 3112 3109 3106 3103 3099 3094 3088 3084 3080 3075 3073 3073 3070 3066 3061 3057 3053 3046 3039 3032 3029 3027 3027 3024 3023 3019 3008 3003
3141 3142 3143 3144 3145 3145 3145 3144 3144 3142 3140 3139 3136 3133 3129 3125 3122 3118 3115 3113 3109 3105 3102 3098 3094 3089 3085 3081 3077 3071 3070 3068 3064 3061 3057 3053 3046 3038 3031 3031 3027 3023 3022 3020 3016 3009 2998
3137 3139 3140 3141 3142 3143 3142 3142 3141 3140 3138 3137 3135 3132 3128 3124 3120 3117 3114 3111 3108 3104 3101 3097 3093 3089 3085 3080 3076 3072 3069 3066 3063 3060 3057 3054 3048 3045 3040 3033 3029 3022 3019 3017 3013 3005 2993
3133 3135 3136 3138 3139 3140 3140 3139 3139 3138 3136 3135 3132 3130 3127 3124 3119 3116 3113 3109 3106 3104 3100 3095 3091 3086 3082 3077 3073 3069 3066 3065 3062 3058 3055 3052 3045 3040 3032 3025 3023 3019 3015 3013 3009 3002 2993
3129 3131 3132 3134 3135 3137 3138 3137 3137 3136 3134 3133 3131 3129 3125 3122 3118 3115 3112 3108 3105 3102 3099 3095 3090 3086 3082 3077 3074 3066 3064 3062 3060 3057 3054 3050 3043 3035 3023 3021 3018 3011 3011 3008 3004 2994 2982
3125 3127 3128 3130 3131 3134 3135 3135 3134 3132 3132 3130 3127 3126 3124 3121 3117 3114 3111 3107 3104 3100 3098 3094 3090 3086 3082 3078 3072 3066 3062 3060 3058 3055 3052 3047 3042 3034 3023 3021 3015 3013 3011 3006 2996 2989 2979
3120 3122 3124 3126 3128 3130 3131 3132 3132 3130 3129 3127 3125 3123 3121 3118 3114 3111 3108 3104 3101 3098 3095 3092 3088 3084 3081 3074 3069 3063 3061 3058 3056 3055 3052 3047 3042 3036 3025 3021 3020 3014 3010 3004 2991 2983 2978
3115 3118 3120 3122 3124 3126 3127 3128 3129 3128 3127 3125 3122 3120 3118 3115 3113 3109 3106 3103 3099 3096 3093 3090 3086 3082 3077 3073 3067 3062 3059 3058 3055 3053 3050 3047 3042 3038 3033 3025 3015 3010 3009 3000 2990 2980 2976
3110 3114 3116 3119 3120 3122 3123 3124 3125 3125 3124 3123 3120 3118 3116 3113 3111 3107 3103 3100 3097 3094 3091 3087 3083 3078 3075 3070 3067 3065 3062 3061 3055 3054 3050 3047 3043 3039 3033 3028 3018 3011 3005 3002 2990 2981 2977
3104 3108 3112 3115 3116 3118 3119 3120 3121 3120 3120 3120 3117 3115 3113 3110 3107 3103 3101 3098 3094 3091 3089 3085 3081 3077 3074 3070 3066 3065 3063 3062 3056 3053 3047 3044 3040 3037 3031 3026 3016 3013 3006 3000 2997 2992 2974
3099 3102 3106 3110 3111 3114 3113 3115 3117 3117 3116 3115 3115 3112 3110 3106 3104 3100 3097 3095 3092 3089 3086 3083 3080 3075 3072 3070 3067 3065 3062 3060 3057 3054 3049 3044 3040 3035 3032 3028 3020 3015 3007 3006 2999 2989 2979
3092 3097 3100 3105 3107 3108 3108 3109 3111 3113 3112 3108 3109 3108 3106 3104 3101 3097 3093 3091 3090 3086 3083 3080 3079 3074 3071 3070 3067 3062 3060 3058 3053 3051 3048 3043 3042 3040 3037 3030 3024 3015 3007 3001 2994 2987 2979